Location: Kapla
(46.2483°N, 15.0094°E)
Time: 05:14:33
(UTC+00:00)

SL-16 R/B - Pass Details

Date: 03 March 2021
Orbit: 843 x 845 km, 71.0° (Epoch: 18 April)

Event Time Altitude Azimuth Distance (km) Brightness Sun altitude
Rises 17:46:41 0° 209° (SSW) 3,388 5.7 -10.7°
Reaches altitude 10° 17:49:08 10° 211° (SSW) 2,457 5.0 -11.2°
Maximum altitude 17:54:46 76° 297° (WNW) 874 2.4 -12.1°
Drops below altitude 10° 18:00:28 10° 24° (NNE) 2,475 4.4 -13.1°
Sets 18:02:56 0° 26° (NNE) 3,415 5.1 -13.5°
